CW7911 Weather Reports


time (UTC)temp
C
wind
direction
speed
KPH
gust
KPH
rain 1hr
cm
rain 24hr
cm
rain mn
cm
humidity
%
barometer
mb
20260831215124 21 50 0.0 3.2 0.00 0.00 0.00 56 1028.3
20260831214622 21 50 0.0 0.0 0.00 0.00 0.00 58 1028.6
20260831214118 21 50 0.0 1.6 0.00 0.00 0.00 57 1028.5
20260831213614 21 50 0.0 0.0 0.00 0.00 0.00 56 1028.5
20260831213109 22 50 0.0 0.0 0.00 0.00 0.00 55 1028.6
20260831212605 22 50 0.0 0.0 0.00 0.00 0.00 57 1028.5
20260831212101 22 50 0.0 1.6 0.00 0.00 0.00 56 1028.5
20260831211555 22 50 0.0 0.0 0.00 0.00 0.00 56 1028.5
20260831211054 22 50 0.0 1.6 0.00 0.00 0.00 55 1028.7
20260831210549 22 50 0.0 1.6 0.00 0.00 0.00 53 1028.2
20260831210046 22 50 0.0 1.6 0.00 0.00 0.00 50 1028.6
20260831205545 22 50 0.0 0.0 0.00 0.00 0.00 47 1028.6
20260831205041 23 50 0.0 0.0 0.00 0.00 0.00 46 1028.4
20260831204530 23 50 0.0 0.0 0.00 0.00 0.00 46 1028.7
20260831204028 23 50 0.0 1.6 0.00 0.00 0.00 45 1028.6
20260831203523 23 50 0.0 0.0 0.00 0.00 0.00 44 1028.4
20260831203021 23 50 0.0 1.6 0.00 0.00 0.00 44 1028.4
20260831202516 24 50 0.0 0.0 0.00 0.00 0.00 44 1028.5
20260831202016 25 50 0.0 0.0 0.00 0.00 0.00 41 1028.8
20260831201514 25 50 0.0 0.0 0.00 0.00 0.00 40 1028.7
20260831201010 26 50 0.0 0.0 0.00 0.00 0.00 39 1028.7
20260831200505 27 50 0.0 0.0 0.00 0.00 0.00 38 1028.7
20260831195959 25 50 0.0 0.0 0.00 0.00 0.00 36 1028.6
20260831195455 26 50 0.0 0.0 0.00 0.00 0.00 35 1028.7
20260831194950 27 50 0.0 1.6 0.00 0.00 0.00 34 1028.7
20260831194445 27 50 0.0 3.2 0.00 0.00 0.00 34 1028.8
20260831193945 26 50 0.0 0.0 0.00 0.00 0.00 34 1028.7
20260831193440 27 50 0.0 1.6 0.00 0.00 0.00 34 1029.1
20260831192935 27 50 0.0 0.0 0.00 0.00 0.00 35 1029.1
20260831192430 27 50 0.0 1.6 0.00 0.00 0.00 31 1029.2
20260831191925 27 50 0.0 0.0 0.00 0.00 0.00 35 1029.2
20260831191421 27 50 0.0 0.0 0.00 0.00 0.00 33 1029.2
20260831190917 26 50 0.0 0.0 0.00 0.00 0.00 33 1029.4
20260831190412 26 50 0.0 0.0 0.00 0.00 0.00 35 1029.1
20260831185911 25 50 0.0 0.0 0.00 0.00 0.00 38 1029.1
20260831185408 23 50 0.0 0.0 0.00 0.00 0.00 39 1029.0
20260831184907 23 50 0.0 1.6 0.00 0.00 0.00 39 1029.2
20260831184402 24 50 0.0 0.0 0.00 0.00 0.00 37 1029.3
20260831183857 24 50 0.0 0.0 0.00 0.00 0.00 41 1029.2
20260831183356 22 50 0.0 0.0 0.00 0.00 0.00 44 1029.6
20260831182855 22 50 0.0 0.0 0.00 0.00 0.00 45 1029.6
20260831182351 22 50 0.0 0.0 0.00 0.00 0.00 45 1029.5
20260831181846 21 50 0.0 0.0 0.00 0.00 0.00 45 1029.6
20260831181342 22 50 0.0 0.0 0.00 0.00 0.00 47 1029.6
20260831180836 22 50 0.0 0.0 0.00 0.00 0.00 49 1029.3
20260831180331 22 50 0.0 0.0 0.00 0.00 0.00 49 1029.6
20260831175830 22 50 0.0 0.0 0.00 0.00 0.00 47 1029.8
20260831175326 22 50 0.0 0.0 0.00 0.00 0.00 49 1029.7
20260831174822 22 50 0.0 0.0 0.00 0.00 0.00 53 1029.7
20260831174318 21 50 0.0 0.0 0.00 0.00 0.00 52 1029.8
20260831173816 21 50 0.0 0.0 0.00 0.00 0.00 49 1030.1
20260831173311 21 50 0.0 0.0 0.00 0.00 0.00 51 1030.0
20260831172806 21 50 1.6 3.2 0.00 0.00 0.00 51 1030.1
20260831172301 21 50 0.0 0.0 0.00 0.00 0.00 51 1030.0
20260831171756 21 50 0.0 0.0 0.00 0.00 0.00 52 1030.0
20260831171253 21 50 0.0 0.0 0.00 0.00 0.00 53 1030.0
20260831170749 21 50 0.0 0.0 0.00 0.00 0.00 54 1029.9
20260831170245 21 50 0.0 1.6 0.00 0.00 0.00 55 1030.1
20260831165741 21 50 0.0 0.0 0.00 0.00 0.00 55 1030.2
20260831165238 21 50 0.0 1.6 0.00 0.00 0.00 55 1030.2
20260831164733 21 50 0.0 1.6 0.00 0.00 0.00 56 1030.5
20260831164229 21 50 0.0 0.0 0.00 0.00 0.00 56 1030.4
20260831163724 21 230 0.0 1.6 0.00 0.00 0.00 55 1030.6
20260831163220 21 230 0.0 1.6 0.00 0.00 0.00 49 1030.4
20260831162719 21 230 0.0 1.6 0.00 0.00 0.00 51 1030.6
20260831162218 20 230 0.0 1.6 0.00 0.00 0.00 50 1030.8
20260831161713 21 230 0.0 0.0 0.00 0.00 0.00 44 1030.5
20260831161209 21 230 1.6 3.2 0.00 0.00 0.00 44 1030.8
20260831160708 21 230 0.0 1.6 0.00 0.00 0.00 50 1030.7
20260831160204 21 230 0.0 0.0 0.00 0.00 0.00 51 1030.7
20260831155703 21 230 0.0 0.0 0.00 0.00 0.00 49 1030.8
20260831155159 21 230 0.0 3.2 0.00 0.00 0.00 52 1030.8
20260831154655 21 230 0.0 1.6 0.00 0.00 0.00 46 1031.0
20260831154150 21 230 0.0 1.6 0.00 0.00 0.00 50 1030.9
20260831153649 21 230 0.0 1.6 0.00 0.00 0.00 46 1031.2
20260831153145 21 230 3.2 3.2 0.00 0.00 0.00 47 1031.0
20260831152641 22 230 0.0 1.6 0.00 0.00 0.00 47 1031.0
20260831152137 21 230 0.0 1.6 0.00 0.00 0.00 45 1031.3
20260831151636 21 230 0.0 0.0 0.00 0.00 0.00 51 1031.1
20260831151131 20 230 0.0 1.6 0.00 0.00 0.00 50 1031.4
20260831150626 21 230 0.0 1.6 0.00 0.00 0.00 49 1031.6
20260831150122 21 230 1.6 1.6 0.00 0.00 0.00 46 1031.4
20260831145615 20 230 0.0 1.6 0.00 0.00 0.00 50 1031.7
20260831145112 20 230 0.0 0.0 0.00 0.00 0.00 50 1031.5
20260831144607 20 230 0.0 0.0 0.00 0.00 0.00 51 1031.5
20260831144102 19 230 0.0 0.0 0.00 0.00 0.00 56 1031.7
20260831143556 18 230 0.0 0.0 0.00 0.00 0.00 52 1031.8
20260831143052 18 230 0.0 0.0 0.00 0.00 0.00 58 1031.9
20260831142549 18 230 0.0 0.0 0.00 0.00 0.00 59 1031.7
20260831142044 17 230 0.0 1.6 0.00 0.00 0.00 63 1031.7
20260831141543 18 230 0.0 0.0 0.00 0.00 0.00 66 1031.5
20260831141038 18 230 0.0 1.6 0.00 0.00 0.00 66 1031.5
20260831140537 17 230 0.0 0.0 0.00 0.00 0.00 66 1031.4
20260831140037 18 230 0.0 3.2 0.00 0.00 0.00 64 1031.7
20260831135535 17 230 0.0 0.0 0.00 0.00 0.00 62 1031.6
20260831135030 17 230 0.0 0.0 0.00 0.00 0.00 67 1031.6
20260831134526 17 230 0.0 0.0 0.00 0.00 0.00 64 1031.7
20260831134021 17 230 0.0 0.0 0.00 0.00 0.00 65 1031.6
20260831133515 16 230 0.0 0.0 0.00 0.00 0.00 66 1031.6
20260831133010 16 230 0.0 0.0 0.00 0.00 0.00 71 1031.7
20260831132507 16 230 0.0 0.0 0.00 0.00 0.00 74 1031.5
20260831132006 16 230 0.0 0.0 0.00 0.00 0.00 74 1031.5
20260831131505 16 230 0.0 0.0 0.00 0.00 0.00 76 1031.5
20260831131002 15 230 0.0 0.0 0.00 0.00 0.00 80 1031.4
20260831130457 15 230 0.0 0.0 0.00 0.00 0.00 82 1031.3
20260831125956 15 230 0.0 0.0 0.00 0.00 0.00 85 1031.4
20260831125451 15 230 0.0 0.0 0.00 0.00 0.00 88 1031.3
20260831124947 14 230 0.0 0.0 0.00 0.00 0.00 90 1031.3
20260831124442 14 230 0.0 0.0 0.00 0.00 0.00 92 1031.4
20260831123938 13 230 0.0 0.0 0.00 0.00 0.00 94 1031.3
20260831123437 13 230 0.0 0.0 0.00 0.00 0.00 94 1031.2
20260831122932 13 230 0.0 0.0 0.00 0.00 0.00 94 1031.2
20260831122427 13 230 0.0 0.0 0.00 0.00 0.00 94 1031.2
20260831121922 12 230 0.0 0.0 0.00 0.00 0.00 94 1031.0
20260831121418 12 230 0.0 0.0 0.00 0.00 0.00 94 1031.2
20260831120913 12 230 0.0 0.0 0.00 0.00 0.00 94 1031.0
20260831120408 12 230 0.0 0.0 0.00 0.00 0.00 94 1031.2
20260831115908 12 230 0.0 0.0 0.00 0.00 0.00 94 1031.1
20260831115404 11 230 0.0 0.0 0.00 0.00 0.00 94 1031.0
20260831114903 11 230 0.0 0.0 0.00 0.00 0.00 94 1031.2
20260831114403 11 230 0.0 0.0 0.00 0.00 0.00 94 1031.2
20260831113859 11 230 0.0 0.0 0.00 0.00 0.00 94 1031.2
20260831113353 11 230 0.0 0.0 0.00 0.00 0.00 94 1031.3
20260831112848 11 230 0.0 0.0 0.00 0.00 0.00 94 1031.1
20260831112342 11 230 0.0 0.0 0.00 0.00 0.00 94 1031.2
20260831111838 10 230 0.0 0.0 0.00 0.00 0.00 94 1031.1
20260831111334 10 230 0.0 0.0 0.00 0.00 0.00 94 1030.8
20260831110829 10 230 0.0 0.0 0.00 0.00 0.00 94 1031.2
20260831110324 10 230 0.0 0.0 0.00 0.00 0.00 94 1031.1
20260831105822 10 230 0.0 0.0 0.00 0.00 0.00 94 1030.9
20260831105318 10 230 0.0 0.0 0.00 0.00 0.00 94 1030.9
20260831104818 10 230 0.0 0.0 0.00 0.00 0.00 94 1030.7
20260831104315 10 230 0.0 0.0 0.00 0.00 0.00 94 1030.7
20260831103815 10 230 0.0 0.0 0.00 0.00 0.00 94 1030.8
20260831103310 10 230 0.0 0.0 0.00 0.00 0.00 94 1030.6
20260831102805 10 230 0.0 0.0 0.00 0.00 0.00 94 1030.7
20260831102300 10 230 0.0 0.0 0.00 0.00 0.00 94 1030.8
20260831101755 10 230 0.0 0.0 0.00 0.00 0.00 94 1030.6
20260831101251 10 230 0.0 0.0 0.00 0.00 0.00 94 1030.6
20260831100747 10 230 0.0 0.0 0.00 0.00 0.00 94 1030.7
20260831100243 10 230 0.0 0.0 0.00 0.00 0.00 94 1030.5
20260831095741 10 230 0.0 0.0 0.00 0.00 0.00 94 1030.6
20260831095231 10 230 0.0 0.0 0.00 0.00 0.00 94 1030.6
20260831094725 10 230 0.0 0.0 0.00 0.00 0.00 94 1030.4
20260831094221 10 230 0.0 0.0 0.00 0.00 0.00 94 1030.2
20260831093717 10 230 0.0 0.0 0.00 0.00 0.00 94 1030.3
20260831093212 10 230 0.0 0.0 0.00 0.00 0.00 94 1030.3
20260831092709 10 230 0.0 0.0 0.00 0.00 0.00 94 1030.3
20260831092204 10 230 0.0 0.0 0.00 0.00 0.00 94 1030.3
20260831091703 10 230 0.0 0.0 0.00 0.00 0.00 94 1030.2
20260831091200 10 230 0.0 0.0 0.00 0.00 0.00 94 1030.1
20260831090659 10 230 0.0 0.0 0.00 0.00 0.00 94 1030.1
20260831090156 11 230 0.0 0.0 0.00 0.00 0.00 94 1030.0
20260831085651 11 230 0.0 0.0 0.00 0.00 0.00 94 1030.0
20260831085146 11 230 0.0 0.0 0.00 0.00 0.00 94 1029.9
20260831084642 10 230 0.0 0.0 0.00 0.00 0.00 94 1029.9
20260831084138 10 230 0.0 0.0 0.00 0.00 0.00 94 1029.7
20260831083634 10 230 0.0 0.0 0.00 0.00 0.00 94 1029.8
20260831083129 10 230 0.0 0.0 0.00 0.00 0.00 94 1029.5
20260831082627 11 230 0.0 0.0 0.00 0.00 0.00 94 1029.6
20260831082123 11 230 0.0 0.0 0.00 0.00 0.00 94 1029.7
20260831081618 11 230 0.0 0.0 0.00 0.00 0.00 94 1029.6
20260831081114 11 230 0.0 0.0 0.00 0.00 0.00 94 1029.6
20260831080609 11 230 0.0 0.0 0.00 0.00 0.00 94 1029.5
20260831080104 11 230 0.0 0.0 0.00 0.00 0.00 94 1029.4
20260831075600 11 230 0.0 0.0 0.00 0.00 0.00 94 1029.3
20260831075055 11 230 0.0 0.0 0.00 0.00 0.00 94 1029.5
20260831074554 11 230 0.0 0.0 0.00 0.00 0.00 94 1029.3
20260831074049 11 230 0.0 0.0 0.00 0.00 0.00 94 1029.3
20260831073544 11 230 0.0 0.0 0.00 0.00 0.00 94 1029.0
20260831073043 11 230 0.0 0.0 0.00 0.00 0.00 94 1029.2
20260831072538 11 230 0.0 0.0 0.00 0.00 0.00 94 1029.2
20260831072035 11 230 0.0 0.0 0.00 0.00 0.00 94 1029.1
20260831071533 11 230 0.0 0.0 0.00 0.00 0.00 94 1029.0
20260831071029 12 230 0.0 0.0 0.00 0.00 0.00 94 1029.1
20260831070528 11 230 0.0 0.0 0.00 0.00 0.00 94 1029.0
20260831070023 12 230 0.0 0.0 0.00 0.00 0.00 94 1029.0
20260831065521 12 230 0.0 0.0 0.00 0.00 0.00 94 1029.1
20260831065015 12 230 0.0 0.0 0.00 0.00 0.00 94 1029.2
20260831064510 12 230 0.0 0.0 0.00 0.00 0.00 94 1029.2
20260831064006 12 230 0.0 0.0 0.00 0.00 0.00 94 1029.2
20260831063501 12 230 0.0 0.0 0.00 0.00 0.00 94 1028.9
20260831062955 12 230 0.0 0.0 0.00 0.00 0.00 94 1029.0
20260831062451 12 230 0.0 0.0 0.00 0.00 0.00 94 1029.2
20260831061950 12 230 0.0 0.0 0.00 0.00 0.00 94 1029.4
20260831061448 12 230 0.0 0.0 0.00 0.00 0.00 94 1029.2
20260831060945 12 230 0.0 0.0 0.00 0.00 0.00 94 1029.0
20260831060445 12 230 0.0 0.0 0.00 0.00 0.00 94 1029.1
20260831055939 12 230 0.0 0.0 0.00 0.00 0.00 94 1028.7
20260831055434 12 230 0.0 0.0 0.00 0.00 0.00 94 1029.0
20260831054930 12 230 0.0 0.0 0.00 0.00 0.00 94 1028.7
20260831054429 12 230 0.0 0.0 0.00 0.00 0.00 94 1028.9
20260831053924 12 230 0.0 0.0 0.00 0.00 0.00 94 1028.6
20260831053421 12 230 0.0 0.0 0.00 0.00 0.00 94 1028.5
20260831052916 12 230 0.0 0.0 0.00 0.00 0.00 94 1028.5
20260831052415 12 230 0.0 0.0 0.00 0.00 0.00 94 1028.5
20260831051914 12 230 0.0 0.0 0.00 0.00 0.00 94 1028.5
20260831051413 12 230 0.0 0.0 0.00 0.00 0.00 94 1028.5
20260831050908 12 230 0.0 0.0 0.00 0.00 0.00 94 1028.7
20260831050408 12 230 0.0 0.0 0.00 0.00 0.00 94 1028.3
20260831045901 12 230 0.0 0.0 0.00 0.00 0.00 94 1028.4
20260831045355 12 230 0.0 0.0 0.00 0.00 0.00 94 1028.4
20260831044850 12 230 0.0 0.0 0.00 0.00 0.00 94 1028.3
20260831044351 12 230 0.0 0.0 0.00 0.00 0.00 94 1028.3
20260831043847 12 230 0.0 0.0 0.00 0.00 0.00 94 1028.5
20260831043346 12 230 0.0 0.0 0.00 0.00 0.00 94 1028.3
20260831042842 12 230 0.0 0.0 0.00 0.00 0.00 94 1028.3
20260831042341 12 230 0.0 0.0 0.00 0.00 0.00 94 1028.4
20260831041836 13 230 0.0 0.0 0.00 0.00 0.00 94 1028.4
20260831041335 13 230 0.0 0.0 0.00 0.00 0.00 94 1028.4
20260831040830 13 230 0.0 0.0 0.00 0.00 0.00 94 1028.2
20260831040329 13 230 0.0 0.0 0.00 0.00 0.00 93 1028.3
20260831035828 13 230 0.0 0.0 0.00 0.03 0.03 93 1028.3
20260831035327 13 230 0.0 0.0 0.00 0.03 0.03 93 1028.4
20260831034822 13 230 0.0 0.0 0.00 0.03 0.03 93 1028.2
20260831034317 13 230 0.0 0.0 0.00 0.03 0.03 93 1028.3
20260831033812 14 230 0.0 0.0 0.00 0.03 0.03 92 1028.4
20260831033307 14 230 0.0 0.0 0.00 0.03 0.03 92 1028.2
20260831032803 14 230 0.0 0.0 0.00 0.03 0.03 92 1028.3
20260831032257 15 230 0.0 0.0 0.00 0.03 0.03 91 1028.1
20260831031752 15 230 0.0 0.0 0.00 0.03 0.03 91 1028.0
20260831031251 15 230 0.0 0.0 0.00 0.03 0.03 91 1027.8
20260831030746 15 230 0.0 0.0 0.00 0.03 0.03 90 1027.9
20260831030244 15 230 0.0 0.0 0.00 0.03 0.03 90 1027.9
20260831025744 15 230 0.0 1.6 0.18 0.03 0.03 89 1028.3
20260831025238 15 230 0.0 0.0 0.18 0.03 0.03 87 1027.9
20260831024735 15 230 0.0 0.0 0.00 0.00 0.00 85 1027.9
20260831024233 16 230 0.0 1.6 0.00 0.00 0.00 84 1028.6
20260831023732 16 230 0.0 0.0 0.00 0.00 0.00 84 1028.3
20260831023231 16 230 0.0 0.0 0.00 0.00 0.00 79 1028.4
20260831022726 16 230 1.6 3.2 0.00 0.00 0.00 80 1028.3
20260831022221 16 230 0.0 3.2 0.00 0.00 0.00 80 1028.4
20260831021720 16 230 0.0 3.2 0.00 0.00 0.00 80 1028.2
20260831021215 16 230 0.0 0.0 0.00 0.00 0.00 81 1028.3
20260831020712 16 230 0.0 3.2 0.00 0.00 0.00 80 1028.5
20260831020210 16 230 1.6 3.2 0.00 0.00 0.00 79 1028.6
20260831015706 17 230 1.6 6.4 0.00 0.00 0.00 80 1028.2
20260831015201 17 230 1.6 3.2 0.00 0.00 0.00 80 1028.1
20260831014656 17 230 1.6 3.2 0.00 0.00 0.00 78 1028.4
20260831014151 18 230 1.6 9.7 0.00 0.00 0.00 73 1028.0
20260831013647 19 230 3.2 14.5 0.00 0.00 0.00 69 1028.0
20260831013146 18 230 4.8 9.7 0.00 0.00 0.00 71 1027.8
20260831012642 17 230 3.2 3.2 0.00 0.00 0.00 82 1027.5
20260831012137 17 230 0.0 0.0 0.00 0.00 0.00 82 1027.0
20260831011636 17 230 0.0 0.0 0.00 0.00 0.00 82 1026.8
20260831011132 17 230 0.0 0.0 0.00 0.00 0.00 82 1026.9
20260831010627 17 230 0.0 0.0 0.00 0.00 0.00 82 1026.5
20260831010122 17 230 0.0 0.0 0.00 0.00 0.00 82 1026.3
20260831005617 17 230 0.0 0.0 0.00 0.00 0.00 82 1026.5
20260831005112 17 230 0.0 0.0 0.00 0.00 0.00 82 1026.4
20260831004608 17 230 0.0 0.0 0.00 0.00 0.00 82 1026.3
20260831004103 17 230 0.0 0.0 0.00 0.00 0.00 82 1026.3
20260831003600 18 230 0.0 0.0 0.00 0.00 0.00 82 1026.1
20260831003055 18 230 0.0 0.0 0.00 0.00 0.00 82 1026.2
20260831002554 18 230 0.0 0.0 0.00 0.00 0.00 81 1026.1
20260831002049 18 230 0.0 0.0 0.00 0.00 0.00 79 1026.4
20260831001544 18 230 0.0 0.0 0.00 0.00 0.00 78 1026.3
20260831001041 19 230 0.0 0.0 0.00 0.00 0.00 78 1026.2
20260831000537 19 230 0.0 0.0 0.00 0.00 0.00 77 1026.1
20260831000036 19 230 0.0 0.0 0.00 0.00 0.00 77 1026.2
20260830235535 19 230 0.0 0.0 0.00 0.00 0.00 77 1026.0
20260830235031 19 230 0.0 0.0 0.00 0.00 0.00 77 1026.0
20260830234525 19 230 0.0 0.0 0.00 0.00 0.00 77 1025.8
20260830234021 20 230 0.0 0.0 0.00 0.00 0.00 77 1025.9
20260830233516 20 230 0.0 0.0 0.00 0.00 0.00 77 1025.9
20260830233012 20 230 0.0 0.0 0.00 0.00 0.00 75 1025.8
20260830232508 20 230 0.0 0.0 0.00 0.00 0.00 75 1025.8
20260830232004 20 230 0.0 0.0 0.00 0.00 0.00 75 1025.8
20260830231459 20 230 0.0 0.0 0.00 0.00 0.00 75 1026.0
20260830230958 20 230 0.0 0.0 0.00 0.00 0.00 74 1025.7
20260830230454 20 230 0.0 0.0 0.00 0.00 0.00 74 1025.7
20260830225952 20 230 0.0 1.6 0.00 0.00 0.00 74 1025.9
20260830225449 20 230 0.0 0.0 0.00 0.00 0.00 72 1025.9
20260830224948 20 230 0.0 0.0 0.00 0.00 0.00 74 1025.9
20260830224447 20 230 0.0 1.6 0.00 0.00 0.00 72 1025.8
20260830223944 20 230 0.0 0.0 0.00 0.00 0.00 75 1025.7
20260830223441 20 230 0.0 0.0 0.00 0.00 0.00 75 1025.9
20260830222939 20 230 0.0 0.0 0.00 0.00 0.00 74 1025.8
20260830222435 20 230 0.0 0.0 0.00 0.00 0.00 76 1025.6
20260830221930 20 230 0.0 0.0 0.00 0.00 0.00 75 1025.6
20260830221426 20 230 0.0 0.0 0.00 0.00 0.00 75 1025.6
20260830220921 20 230 0.0 0.0 0.00 0.00 0.00 74 1025.6
20260830220416 21 230 0.0 0.0 0.00 0.00 0.00 73 1025.8
20260830215913 21 230 0.0 0.0 0.00 0.00 0.00 73 1025.4
20260830215409 21 230 0.0 0.0 0.00 0.00 0.00 73 1025.5